Time,TemperatureF,DewpointF,PressureIn,WindDirection,WindDirectionDegrees,WindSpeedMPH,WindSpeedGustMPH,Humidity,HourlyPrecipIn,Conditions,Clouds,dailyrainin,SoftwareType,DateUTC
2013-07-11 00:12:00,82.0,74.0,30.03,ESE,120,4.0,7.0,78,0.00,,,0.35,,2013-07-11 04:12:00,
2013-07-11 00:22:00,82.0,74.0,30.03,East,99,4.0,8.0,77,0.00,,,0.35,,2013-07-11 04:22:00,
2013-07-11 00:32:00,82.0,74.0,30.03,East,101,5.0,10.0,78,0.00,,,0.35,,2013-07-11 04:32:00,
2013-07-11 00:42:00,82.0,75.0,30.03,ESE,104,5.0,8.0,79,0.00,,,0.35,,2013-07-11 04:42:00,
2013-07-11 01:22:00,82.0,76.0,30.03,East,85,7.0,9.0,81,0.00,,,0.35,,2013-07-11 05:22:00,
2013-07-11 01:32:00,82.0,75.0,30.02,ESE,119,5.0,9.0,80,0.00,,,0.35,,2013-07-11 05:32:00,
2013-07-11 01:43:00,82.0,75.0,30.02,ESE,119,5.0,9.0,80,0.00,,,0.35,,2013-07-11 05:43:00,
2013-07-11 01:52:00,82.0,76.0,30.01,SE,138,3.0,7.0,81,0.00,,,0.35,,2013-07-11 05:52:00,
2013-07-11 02:01:00,81.0,75.0,30.01,ESE,115,4.0,7.0,81,0.00,,,0.35,,2013-07-11 06:01:00,
2013-07-11 02:12:00,82.0,76.0,30.01,SE,131,3.0,7.0,82,0.00,,,0.35,,2013-07-11 06:12:00,
2013-07-11 02:22:00,81.0,75.0,30.01,SE,126,4.0,7.0,82,0.00,,,0.35,,2013-07-11 06:22:00,
2013-07-11 02:32:00,81.0,75.0,30.01,ESE,118,2.0,6.0,82,0.00,,,0.35,,2013-07-11 06:32:00,
2013-07-11 02:43:00,81.0,75.0,30.00,ESE,118,2.0,4.0,82,0.00,,,0.35,,2013-07-11 06:43:00,
2013-07-11 02:52:00,81.0,75.0,30.00,ESE,118,3.0,4.0,82,0.00,,,0.35,,2013-07-11 06:52:00,
2013-07-11 03:02:00,81.0,75.0,30.00,ESE,118,2.0,5.0,82,0.00,,,0.35,,2013-07-11 07:02:00,
2013-07-11 03:12:00,81.0,75.0,29.99,ESE,118,1.0,5.0,81,0.00,,,0.35,,2013-07-11 07:12:00,
2013-07-11 03:22:00,81.0,75.0,29.99,ESE,118,2.0,5.0,82,0.00,,,0.35,,2013-07-11 07:22:00,
2013-07-11 03:32:00,81.0,75.0,29.99,East,91,1.0,6.0,82,0.00,,,0.35,,2013-07-11 07:32:00,
2013-07-11 03:45:00,81.0,75.0,29.99,East,98,0.0,5.0,82,0.00,,,0.35,,2013-07-11 07:45:00,
2013-07-11 03:53:00,81.0,75.0,29.99,East,98,0.0,3.0,82,0.00,,,0.35,,2013-07-11 07:53:00,
2013-07-11 04:02:00,81.0,75.0,29.99,East,98,1.0,4.0,81,0.00,,,0.35,,2013-07-11 08:02:00,
2013-07-11 04:12:00,80.0,74.0,29.98,East,98,0.0,0.0,81,0.00,,,0.35,,2013-07-11 08:12:00,
2013-07-11 04:22:00,80.0,74.0,29.98,East,98,0.0,0.0,81,0.00,,,0.08,,2013-07-11 08:22:00,
2013-07-11 04:34:00,80.0,74.0,29.98,East,98,0.0,0.0,82,0.00,,,0.08,,2013-07-11 08:34:00,
2013-07-11 04:43:00,80.0,74.0,29.98,East,98,1.0,3.0,82,0.00,,,0.08,,2013-07-11 08:43:00,
2013-07-11 05:03:00,80.0,75.0,29.98,East,98,0.0,3.0,84,0.00,,,0.08,,2013-07-11 09:03:00,
2013-07-11 05:12:00,80.0,75.0,29.98,East,98,1.0,3.0,84,0.00,,,0.08,,2013-07-11 09:12:00,
2013-07-11 05:21:00,80.0,75.0,29.98,East,93,2.0,5.0,84,0.00,,,0.06,,2013-07-11 09:21:00,
2013-07-11 05:43:00,80.0,75.0,29.98,ESE,102,3.0,7.0,84,0.00,,,0.06,,2013-07-11 09:43:00,
2013-07-11 05:53:00,81.0,75.0,29.98,ESE,104,3.0,7.0,83,0.00,,,0.06,,2013-07-11 09:53:00,
2013-07-11 06:22:00,81.0,75.0,29.98,East,98,4.0,7.0,82,0.00,,,0.06,,2013-07-11 10:22:00,
2013-07-11 06:33:00,81.0,75.0,29.99,East,98,5.0,8.0,82,0.00,,,0.06,,2013-07-11 10:33:00,
2013-07-11 06:43:00,81.0,75.0,29.98,ESE,116,5.0,10.0,82,0.00,,,0.06,,2013-07-11 10:43:00,
2013-07-11 06:52:00,81.0,75.0,29.99,ESE,106,5.0,9.0,82,0.00,,,0.06,,2013-07-11 10:52:00,
2013-07-11 07:02:00,81.0,75.0,29.99,ESE,106,5.0,9.0,82,0.00,,,0.06,,2013-07-11 11:02:00,
2013-07-11 07:12:00,81.0,75.0,29.99,East,97,5.0,8.0,83,0.00,,,0.06,,2013-07-11 11:12:00,
2013-07-11 07:22:00,81.0,75.0,29.99,ESE,116,4.0,8.0,83,0.00,,,0.06,,2013-07-11 11:22:00,
2013-07-11 07:32:00,81.0,75.0,29.99,ESE,104,6.0,8.0,82,0.00,,,0.06,,2013-07-11 11:32:00,
2013-07-11 07:43:00,82.0,76.0,29.98,ESE,108,5.0,8.0,82,0.00,,,0.06,,2013-07-11 11:43:00,
2013-07-11 07:53:00,82.0,76.0,29.99,ESE,118,6.0,9.0,81,0.00,,,0.06,,2013-07-11 11:53:00,
2013-07-11 08:01:00,83.0,77.0,29.99,ESE,116,4.0,6.0,81,0.00,,,0.06,,2013-07-11 12:01:00,
2013-07-11 08:22:00,84.0,77.0,29.99,ESE,109,4.0,9.0,79,0.00,,,0.06,,2013-07-11 12:22:00,
2013-07-11 08:33:00,84.0,77.0,29.99,ESE,118,2.0,7.0,79,0.00,,,0.06,,2013-07-11 12:33:00,
2013-07-11 08:43:00,85.0,77.0,29.99,SE,125,4.0,6.0,77,0.00,,,0.06,,2013-07-11 12:43:00,
2013-07-11 09:02:00,85.0,77.0,29.99,ESE,116,6.0,7.0,77,0.00,,,0.06,,2013-07-11 13:02:00,
2013-07-11 09:13:00,85.0,77.0,29.99,ESE,111,6.0,10.0,78,0.00,,,0.06,,2013-07-11 13:13:00,
2013-07-11 10:05:00,86.0,78.0,29.99,SE,128,6.0,8.0,78,0.00,,,0.00,,2013-07-11 14:05:00,
2013-07-11 10:15:00,86.0,78.0,29.99,SE,141,5.0,9.0,76,0.00,,,0.00,,2013-07-11 14:15:00,
2013-07-11 10:24:00,87.0,78.0,29.99,SE,131,5.0,9.0,74,0.00,,,0.00,,2013-07-11 14:24:00,
2013-07-11 10:45:00,87.0,78.0,29.99,ESE,113,6.0,9.0,74,0.00,,,0.00,,2013-07-11 14:45:00,
2013-07-11 10:54:00,87.0,78.0,29.99,SE,124,6.0,11.0,75,0.00,,,0.00,,2013-07-11 14:54:00,
2013-07-11 11:05:00,87.0,78.0,29.99,SSE,156,4.0,8.0,75,0.00,,,0.00,,2013-07-11 15:05:00,
2013-07-11 11:13:00,87.0,78.0,29.99,SE,125,5.0,10.0,74,0.00,,,0.00,,2013-07-11 15:13:00,
2013-07-11 11:24:00,87.0,78.0,30.00,ESE,114,5.0,10.0,74,0.00,,,0.00,,2013-07-11 15:24:00,
2013-07-11 11:37:00,87.0,78.0,30.00,SE,137,4.0,9.0,75,0.00,,,0.00,,2013-07-11 15:37:00,
2013-07-11 11:46:00,88.0,79.0,30.00,SSE,151,4.0,8.0,74,0.00,,,0.00,,2013-07-11 15:46:00,
2013-07-11 11:55:00,88.0,79.0,30.00,ESE,112,6.0,10.0,74,0.00,,,0.00,,2013-07-11 15:55:00,
2013-07-11 12:35:00,87.0,78.0,30.00,SE,131,5.0,10.0,74,0.00,,,0.00,,2013-07-11 16:35:00,
2013-07-11 12:47:00,87.0,77.0,30.00,SE,131,4.0,9.0,72,0.00,,,0.00,,2013-07-11 16:47:00,
2013-07-11 12:54:00,87.0,76.0,30.00,ESE,114,5.0,7.0,71,0.00,,,0.00,,2013-07-11 16:54:00,
2013-07-11 13:03:00,87.0,77.0,29.99,SE,129,4.0,7.0,72,0.00,,,0.00,,2013-07-11 17:03:00,
2013-07-11 13:15:00,87.0,77.0,29.99,SE,138,4.0,7.0,72,0.00,,,0.00,,2013-07-11 17:15:00,
2013-07-11 13:26:00,87.0,77.0,29.99,SSE,149,4.0,7.0,72,0.00,,,0.00,,2013-07-11 17:26:00,
2013-07-11 13:38:00,88.0,77.0,29.99,SE,143,2.0,7.0,71,0.00,,,0.00,,2013-07-11 17:38:00,
2013-07-11 13:46:00,88.0,78.0,29.99,SE,146,3.0,6.0,72,0.00,,,0.00,,2013-07-11 17:46:00,
2013-07-11 13:52:00,87.0,76.0,29.99,SSE,148,4.0,7.0,71,0.00,,,0.00,,2013-07-11 17:52:00,
2013-07-11 14:05:00,88.0,77.0,29.98,SSE,147,5.0,7.0,71,0.00,,,0.00,,2013-07-11 18:05:00,
2013-07-11 14:46:00,87.0,76.0,29.98,SE,142,3.0,7.0,71,0.00,,,0.00,,2013-07-11 18:46:00,
2013-07-11 15:13:00,87.0,78.0,29.98,ESE,114,3.0,9.0,74,0.00,,,0.00,,2013-07-11 19:13:00,
2013-07-11 15:56:00,86.0,77.0,29.96,SSE,149,4.0,7.0,75,0.00,,,0.00,,2013-07-11 19:56:00,
2013-07-11 16:26:00,87.0,78.0,29.95,ESE,103,3.0,8.0,75,0.00,,,0.00,,2013-07-11 20:26:00,
2013-07-11 16:46:00,86.0,77.0,29.94,ESE,110,2.0,8.0,74,0.00,,,0.00,,2013-07-11 20:46:00,
2013-07-11 16:54:00,86.0,77.0,29.94,East,98,1.0,5.0,74,0.00,,,0.00,,2013-07-11 20:54:00,
2013-07-11 17:15:00,86.0,77.0,29.93,ESE,104,2.0,6.0,74,0.00,,,0.00,,2013-07-11 21:15:00,
2013-07-11 17:45:00,86.0,77.0,29.93,ENE,59,3.0,7.0,74,0.00,,,0.00,,2013-07-11 21:45:00,
2013-07-11 18:05:00,86.0,77.0,29.93,ENE,64,2.0,7.0,75,0.00,,,0.00,,2013-07-11 22:05:00,
2013-07-11 18:16:00,85.0,75.0,29.94,East,85,1.0,7.0,73,0.00,,,0.00,,2013-07-11 22:16:00,
2013-07-11 18:46:00,85.0,77.0,29.96,East,85,3.0,9.0,78,0.00,,,0.00,,2013-07-11 22:46:00,
2013-07-11 18:54:00,85.0,77.0,29.96,ENE,74,4.0,9.0,78,0.00,,,0.00,,2013-07-11 22:54:00,
2013-07-11 19:06:00,85.0,78.0,29.96,ESE,106,6.0,10.0,79,0.00,,,0.00,,2013-07-11 23:06:00,
2013-07-11 19:35:00,84.0,76.0,29.97,East,94,4.0,10.0,77,0.00,,,0.00,,2013-07-11 23:35:00,
2013-07-11 19:55:00,84.0,76.0,29.96,East,94,5.0,10.0,77,0.00,,,0.00,,2013-07-11 23:55:00,
2013-07-11 20:05:00,84.0,76.0,29.96,East,89,5.0,9.0,77,0.00,,,0.00,,2013-07-12 00:05:00,
2013-07-11 20:14:00,84.0,77.0,29.96,East,86,4.0,8.0,79,0.00,,,0.00,,2013-07-12 00:14:00,
2013-07-11 20:25:00,84.0,76.0,29.95,East,96,2.0,8.0,78,0.00,,,0.00,,2013-07-12 00:25:00,
2013-07-11 20:44:00,83.0,76.0,29.95,East,79,6.0,10.0,80,0.00,,,0.00,,2013-07-12 00:44:00,
2013-07-11 20:55:00,83.0,76.0,29.95,ENE,77,6.0,10.0,80,0.00,,,0.00,,2013-07-12 00:55:00,
2013-07-11 21:05:00,83.0,76.0,29.95,ESE,104,0.0,9.0,80,0.00,,,0.00,,2013-07-12 01:05:00,
2013-07-11 21:13:00,82.0,76.0,29.95,East,85,2.0,5.0,81,0.00,,,0.00,,2013-07-12 01:13:00,
2013-07-11 21:26:00,82.0,75.0,29.96,East,86,2.0,7.0,80,0.00,,,0.00,,2013-07-12 01:26:00,
2013-07-11 21:46:00,82.0,74.0,29.97,East,85,2.0,7.0,78,0.00,,,0.00,,2013-07-12 01:46:00,
2013-07-11 21:55:00,82.0,74.0,29.97,East,88,2.0,5.0,77,0.00,,,0.00,,2013-07-12 01:55:00,
2013-07-11 22:16:00,82.0,74.0,29.97,ESE,107,2.0,6.0,77,0.00,,,0.00,,2013-07-12 02:16:00,
2013-07-11 22:25:00,83.0,76.0,29.98,ESE,106,4.0,8.0,79,0.00,,,0.00,,2013-07-12 02:25:00,
2013-07-11 22:45:00,83.0,77.0,29.97,ESE,115,5.0,9.0,82,0.00,,,0.00,,2013-07-12 02:45:00,
2013-07-11 22:53:00,83.0,77.0,29.97,ESE,112,5.0,9.0,83,0.00,,,0.00,,2013-07-12 02:53:00,
2013-07-11 23:14:00,82.0,77.0,29.98,SE,126,5.0,11.0,84,0.00,,,0.00,,2013-07-12 03:14:00,
2013-07-11 23:25:00,82.0,76.0,29.98,ESE,117,6.0,11.0,83,0.00,,,0.00,,2013-07-12 03:25:00,
2013-07-11 23:37:00,82.0,76.0,29.98,ESE,116,6.0,11.0,83,0.00,,,0.00,,2013-07-12 03:37:00,
2013-07-11 23:45:00,83.0,78.0,29.98,ESE,110,9.0,18.0,84,0.00,,,0.00,,2013-07-12 03:45:00,
2013-07-11 23:54:00,82.0,76.0,29.98,SSE,155,9.0,15.0,83,0.00,,,0.00,,2013-07-12 03:54:00,